Location: Dillon
(41.1766°N, 107.0923°W)
Time: 19:55:10
(UTC+00:00)

AO-27 - Visible Passes

Search period start: 29 June 2022 00:00
Search period end: 09 July 2022 00:00
Orbit: 785 x 797 km, 98.9° (Epoch: 29 June)

Date Brightness Start Highest point End Pass type
(mag) Time Alt. Az. Time Alt. Az. Time Alt. Az.
29 Jun 9.9 03:11:20 10° SSW 03:15:30 24° W 03:19:41 10° NW visible
02 Jul 10.2 03:23:48 10° SW 03:27:26 19° W 03:31:05 10° NW visible
05 Jul 10.3 03:36:32 10° SW 03:39:23 15° W 03:42:16 10° WNW visible
08 Jul 10.5 03:49:49 10° WSW 03:51:22 11° W 03:52:55 10° WNW visible
